QPF
0.00 0.00 0.00 0.00 0.00 0.00 0.00 0.00 0.00 0.00 0.00 0.00 0.00 0.00 0.00 0.00 0.00 0.00 0.00 0.00 0.00 0.00 0.00 0.00 0.00 0.00 0.00 0.00 0.00 0.00 0.00 0.00 0.00 0.01 0.02 0.02 0.01 0.01 0.01 0.00 0.01 0.01 0.01
0.00 0.00 0.00 0.00 0.00 0.00 0.00 0.00 0.00 0.00 0.00 0.00 0.00 0.00 0.00 0.00 0.00 0.00 0.00 0.00 0.00 0.00 0.00 0.00 0.00 0.00 0.00 0.00 0.00 0.00 0.00 0.00 0.00 0.00 0.00 0.00 0.00 0.00 0.00 0.00 0.00 0.01 0.01
0.01 0.00 0.00 0.00 0.00 0.00 0.00 0.00 0.00 0.00 0.00 0.00 0.00 0.00 0.00 0.00 0.00 0.00 0.00 0.00 0.00 0.00 0.00 0.00 0.00 0.00 0.00 0.00 0.00 0.00 0.00 0.00 0.00 0.00 0.00 0.00 0.00 0.00 0.00 0.00 0.00 0.00 0.00
0.01 0.02 0.00 0.00 0.00 0.00 0.00 0.00 0.00 0.00 0.00 0.00 0.00 0.00 0.00 0.00 0.00 0.00 0.00 0.00 0.00 0.00 0.00 0.00 0.00 0.00 0.00 0.00 0.00 0.00 0.00 0.00 0.00 0.00 0.00 0.00 0.00 0.00 0.00 0.00 0.00 0.00 0.00
0.18 0.06 0.00 0.00 0.00 0.01 0.00 0.00 0.00 0.00 0.00 0.00 0.00 0.00 0.00 0.00 0.00 0.00 0.00 0.00 0.00 0.00 0.00 0.00 0.00 0.00 0.00 0.00 0.00 0.00 0.00 0.00 0.00 0.00 0.00 0.00 0.00 0.00 0.00 0.00 0.00 0.00 0.00
0.20 0.01 0.01 0.00 0.00 0.00 0.00 0.00 0.01 0.02 0.01 0.00 0.00 0.00 0.00 0.00 0.00 0.00 0.00 0.00 0.00 0.00 0.00 0.00 0.00 0.00 0.00 0.00 0.00 0.00 0.00 0.00 0.00 0.00 0.00 0.00 0.00 0.00 0.00 0.00 0.00 0.00 0.00
0.12 0.02 0.03 0.02 0.03 0.00 0.00 0.00 0.01 0.07 0.04 0.00 0.00 0.00 0.00 0.00 0.01 0.01 0.00 0.00 0.00 0.00 0.00 0.00 0.00 0.00 0.00 0.00 0.00 0.00 0.00 0.00 0.00 0.00 0.00 0.00 0.00 0.00 0.00 0.00 0.00 0.00 0.00
0.09 0.09 0.09 0.02 0.01 0.01 0.00 0.00 0.00 0.04 0.06 0.01 0.00 0.00 0.00 0.00 0.01 0.00 0.00 0.00 0.00 0.00 0.00 0.00 0.00 0.00 0.00 0.00 0.00 0.00 0.00 0.00 0.00 0.00 0.00 0.00 0.00 0.00 0.00 0.00 0.00 0.00 0.00
0.13 0.43 0.57 0.19 0.07 0.09 0.02 0.00 0.01 0.06 0.09 0.06 0.00 0.00 0.00 0.00 0.00 0.00 0.00 0.00 0.00 0.00 0.00 0.00 0.00 0.00 0.00 0.00 0.00 0.00 0.00 0.00 0.00 0.00 0.00 0.00 0.00 0.00 0.00 0.00 0.00 0.00 0.00
0.03 0.15 0.43 0.11 0.10 0.21 0.08 0.02 0.02 0.07 0.16 0.14 0.01 0.00 0.00 0.00 0.00 0.00 0.00 0.00 0.00 0.00 0.00 0.00 0.00 0.00 0.00 0.00 0.00 0.00 0.00 0.00 0.00 0.00 0.00 0.00 0.00 0.00 0.00 0.00 0.00 0.00 0.00
0.07 0.17 0.16 0.07 0.09 0.14 0.06 0.01 0.01 0.06 0.14 0.17 0.03 0.00 0.00 0.00 0.00 0.00 0.00 0.00 0.00 0.00 0.00 0.00 0.00 0.00 0.00 0.00 0.00 0.00 0.00 0.00 0.00 0.00 0.00 0.00 0.00 0.00 0.00 0.00 0.00 0.00 0.00
0.03 0.07 0.13 0.15 0.06 0.09 0.05 0.00 0.00 0.01 0.10 0.22 0.04 0.00 0.00 0.00 0.00 0.00 0.00 0.00 0.00 0.00 0.00 0.00 0.00 0.00 0.00 0.00 0.00 0.00 0.00 0.00 0.00 0.00 0.00 0.00 0.00 0.00 0.00 0.00 0.00 0.00 0.00
0.02 0.13 0.15 0.13 0.05 0.06 0.03 0.00 0.00 0.00 0.04 0.22 0.03 0.00 0.00 0.00 0.00 0.00 0.00 0.00 0.00 0.00 0.00 0.00 0.00 0.00 0.00 0.00 0.00 0.00 0.00 0.00 0.00 0.00 0.00 0.00 0.00 0.00 0.00 0.00 0.00 0.00 0.00
0.02 0.02 0.06 0.04 0.05 0.05 0.02 0.00 0.00 0.00 0.01 0.10 0.03 0.00 0.00 0.00 0.00 0.00 0.00 0.00 0.00 0.00 0.00 0.00 0.00 0.00 0.00 0.00 0.00 0.00 0.00 0.00 0.00 0.00 0.00 0.00 0.00 0.00 0.00 0.00 0.00 0.00 0.00
0.01 0.02 0.00 0.00 0.00 0.02 0.01 0.00 0.00 0.01 0.00 0.03 0.03 0.00 0.00 0.00 0.00 0.00 0.00 0.00 0.00 0.00 0.00 0.00 0.00 0.00 0.00 0.00 0.00 0.00 0.00 0.00 0.00 0.00 0.00 0.00 0.00 0.00 0.00 0.00 0.00 0.00 0.00
0.00 0.00 0.01 0.01 0.00 0.00 0.00 0.00 0.00 0.00 0.01 0.01 0.02 0.00 0.00 0.00 0.00 0.00 0.00 0.00 0.00 0.00 0.00 0.00 0.00 0.00 0.00 0.00 0.00 0.00 0.00 0.00 0.00 0.00 0.00 0.00 0.00 0.00 0.00 0.00 0.00 0.00 0.00
0.00 0.01 0.02 0.00 0.00 0.00 0.00 0.00 0.00 0.00 0.00 0.01 0.01 0.00 0.00 0.00 0.00 0.00 0.00 0.00 0.00 0.00 0.00 0.00 0.00 0.00 0.00 0.00 0.00 0.00 0.00 0.00 0.00 0.00 0.00 0.00 0.00 0.00 0.00 0.00 0.00 0.00 0.00
0.01 0.01 0.00 0.00 0.00 0.00 0.00 0.00 0.00 0.00 0.00 0.00 0.01 0.00 0.00 0.00 0.00 0.00 0.00 0.00 0.00 0.00 0.00 0.00 0.00 0.00 0.00 0.00 0.00 0.00 0.00 0.00 0.00 0.00 0.00 0.00 0.00 0.00 0.00 0.00 0.00 0.00 0.00
0.00 0.00 0.00 0.00 0.00 0.00 0.00 0.00 0.00 0.00 0.00 0.00 0.00 0.00 0.00 0.00 0.00 0.00 0.00 0.00 0.00 0.00 0.00 0.00 0.00 0.00 0.00 0.00 0.00 0.00 0.00 0.00 0.00 0.00 0.00 0.00 0.00 0.00 0.00 0.00 0.00 0.00 0.00
0.00 0.00 0.00 0.00 0.00 0.00 0.00 0.00 0.00 0.00 0.00 0.00 0.00 0.01 0.00 0.00 0.00 0.00 0.00 0.00 0.00 0.00 0.00 0.00 0.00 0.00 0.00 0.00 0.00 0.00 0.00 0.00 0.00 0.00 0.00 0.00 0.00 0.00 0.00 0.00 0.00 0.00 0.00
0.00 0.00 0.00 0.00 0.00 0.00 0.00 0.00 0.00 0.00 0.00 0.00 0.00 0.00 0.00 0.00 0.00 0.00 0.00 0.00 0.00 0.00 0.00 0.00 0.00 0.00 0.00 0.00 0.00 0.00 0.00 0.00 0.00 0.00 0.00 0.00 0.00 0.00 0.00 0.00 0.00 0.00 0.00
0.00 0.00 0.00 0.00 0.00 0.00 0.00 0.00 0.00 0.00 0.00 0.00 0.00 0.01 0.00 0.00 0.00 0.00 0.00 0.02 0.02 0.01 0.00 0.00 0.00 0.00 0.00 0.00 0.00 0.00 0.00 0.00 0.00 0.00 0.00 0.00 0.00 0.00 0.00 0.00 0.00 0.00 0.00
0.00 0.00 0.00 0.00 0.00 0.00 0.00 0.00 0.00 0.00 0.00 0.00 0.00 0.00 0.00 0.01 0.00 0.00 0.01 0.03 0.04 0.03 0.01 0.00 0.00 0.00 0.00 0.00 0.00 0.00 0.00 0.00 0.00 0.00 0.00 0.00 0.00 0.00 0.00 0.00 0.00 0.00 0.00
0.00 0.00 0.00 0.00 0.00 0.00 0.00 0.00 0.00 0.00 0.00 0.00 0.00 0.00 0.00 0.00 0.00 0.00 0.00 0.00 0.00 0.01 0.01 0.02 0.01 0.00 0.00 0.00 0.00 0.00 0.00 0.00 0.00 0.00 0.00 0.00 0.00 0.00 0.00 0.00 0.00 0.00 0.00
0.00 0.00 0.00 0.00 0.00 0.00 0.00 0.00 0.00 0.00 0.00 0.00 0.00 0.00 0.00 0.00 0.00 0.00 0.00 0.00 0.00 0.00 0.00 0.02 0.03 0.02 0.01 0.01 0.01 0.01 0.01 0.00 0.00 0.00 0.00 0.00 0.00 0.00 0.00 0.00 0.00 0.00 0.00
0.00 0.00 0.00 0.00 0.00 0.00 0.00 0.00 0.00 0.00 0.00 0.00 0.00 0.00 0.00 0.00 0.00 0.00 0.00 0.00 0.00 0.00 0.00 0.00 0.03 0.02 0.02 0.02 0.02 0.01 0.01 0.01 0.01 0.00 0.00 0.00 0.00 0.00 0.00 0.00 0.00 0.00 0.00
MSLP
1011.25 1011.47 1011.57 1011.32 1011.57 1012.46 1011.84 1013.68 1013.37 1013.61 1013.27 1014.12 1013.63 1015.62 1015.97 1016.19 1016.64 1017.15 1017.41 1017.63 1017.95 1018.22 1018.77 1019.33 1019.60 1020.06 1020.22 1020.35 1020.50 1020.55 1020.72 1020.64 1020.67 1021.00 1021.05 1021.22 1021.32 1021.48 1021.65 1021.89 1021.93 1021.84 1021.97
1011.43 1011.42 1011.85 1012.02 1012.01 1011.82 1012.59 1013.61 1013.61 1013.75 1014.17 1014.28 1013.91 1015.29 1016.00 1016.66 1016.67 1017.44 1017.70 1017.95 1018.24 1018.82 1019.28 1019.77 1019.99 1020.31 1020.88 1020.93 1021.18 1021.01 1021.22 1021.17 1021.31 1021.58 1021.56 1021.75 1021.94 1022.18 1022.29 1022.27 1022.45 1022.48 1022.61
1011.94 1011.89 1011.93 1012.08 1012.30 1012.48 1012.60 1013.33 1013.76 1013.89 1014.57 1014.43 1014.71 1014.92 1016.41 1016.74 1017.26 1017.66 1018.05 1018.30 1018.63 1019.34 1019.69 1020.09 1020.47 1020.78 1021.26 1021.44 1021.59 1021.49 1021.60 1021.77 1021.92 1022.07 1021.90 1021.96 1022.46 1022.88 1022.88 1022.89 1023.00 1023.17 1023.31
1012.07 1012.30 1012.26 1012.28 1012.38 1012.63 1012.95 1013.26 1013.77 1014.44 1014.63 1014.70 1014.91 1015.29 1016.69 1017.14 1017.66 1018.01 1018.43 1018.80 1019.33 1019.68 1019.98 1020.43 1020.82 1021.29 1021.60 1021.99 1022.02 1021.89 1022.13 1022.39 1022.56 1022.36 1022.21 1022.49 1022.89 1023.54 1023.54 1023.46 1023.78 1023.96 1024.05
1012.17 1012.34 1012.32 1012.46 1012.54 1012.66 1013.05 1013.42 1013.90 1014.48 1014.83 1015.57 1015.47 1015.57 1016.97 1017.42 1017.94 1018.29 1018.63 1019.24 1019.63 1019.98 1020.28 1020.62 1021.41 1021.72 1022.07 1022.35 1022.54 1022.54 1022.78 1023.00 1022.99 1022.89 1023.12 1023.44 1023.79 1024.28 1024.22 1024.21 1024.43 1024.79 1024.80
1012.29 1012.40 1012.71 1012.85 1012.47 1012.66 1013.09 1013.45 1013.94 1014.53 1014.96 1015.49 1015.99 1015.96 1017.19 1017.67 1018.10 1018.58 1019.08 1019.52 1019.73 1020.33 1020.65 1021.20 1021.84 1022.24 1022.59 1022.84 1023.08 1023.15 1023.24 1023.23 1023.35 1023.27 1023.72 1024.43 1024.34 1024.99 1025.00 1025.07 1025.39 1025.56 1025.61
1012.53 1012.40 1012.56 1012.91 1012.85 1012.82 1013.25 1013.70 1014.29 1014.55 1015.12 1015.39 1016.39 1016.58 1017.21 1017.99 1018.28 1019.04 1019.31 1019.89 1020.11 1020.48 1021.16 1021.73 1022.33 1022.78 1022.72 1023.22 1023.31 1023.72 1023.80 1023.93 1023.68 1023.91 1024.12 1024.52 1024.88 1025.29 1025.64 1025.54 1025.98 1026.11 1026.19
1012.63 1012.45 1012.59 1012.94 1013.06 1013.06 1013.29 1013.91 1014.25 1014.79 1015.06 1016.09 1016.26 1016.72 1017.46 1018.18 1018.69 1019.15 1019.72 1020.29 1020.63 1020.90 1021.51 1022.07 1022.76 1022.97 1023.18 1023.46 1023.58 1024.06 1024.11 1024.01 1023.96 1024.48 1024.51 1025.25 1025.73 1025.51 1025.91 1026.17 1026.25 1026.34 1026.55
1012.41 1012.77 1012.79 1012.97 1013.29 1013.65 1013.59 1013.99 1014.28 1015.01 1015.62 1016.26 1016.33 1016.57 1017.86 1018.52 1018.92 1019.60 1020.27 1020.77 1020.95 1021.38 1021.85 1022.46 1022.95 1023.30 1023.54 1023.68 1024.00 1024.33 1024.48 1024.29 1024.36 1024.76 1024.81 1025.40 1025.93 1026.00 1026.25 1026.54 1026.75 1026.78 1027.11
1012.35 1012.50 1013.27 1013.04 1013.70 1014.44 1014.43 1014.49 1014.79 1015.10 1015.98 1016.38 1016.67 1016.97 1018.18 1018.62 1019.30 1020.02 1020.75 1020.99 1021.14 1021.67 1022.24 1022.66 1023.21 1023.64 1023.85 1024.02 1024.32 1024.70 1024.78 1024.74 1024.80 1025.02 1025.23 1025.80 1026.23 1026.51 1026.75 1027.02 1027.05 1027.21 1027.47
1012.34 1012.32 1012.94 1013.26 1014.21 1014.54 1014.72 1015.11 1015.25 1015.35 1015.95 1017.02 1016.90 1017.42 1018.44 1018.82 1019.75 1020.19 1021.02 1021.24 1021.46 1022.01 1022.44 1022.93 1023.45 1024.02 1024.32 1024.43 1024.70 1025.06 1025.27 1025.22 1025.40 1025.39 1025.55 1026.25 1026.42 1026.78 1027.11 1027.32 1027.49 1027.67 1027.79
1012.59 1012.46 1012.67 1013.55 1014.03 1014.36 1014.74 1015.14 1015.45 1015.37 1016.00 1016.78 1017.12 1017.69 1018.52 1019.16 1019.84 1020.30 1021.19 1021.65 1021.80 1022.14 1022.80 1023.43 1023.60 1024.25 1024.53 1024.63 1025.01 1025.45 1025.27 1025.59 1025.65 1025.81 1026.18 1026.64 1026.67 1026.96 1027.39 1027.63 1027.69 1027.87 1028.21
1012.86 1012.85 1012.80 1012.91 1013.35 1014.09 1014.73 1015.33 1015.69 1015.77 1016.27 1017.16 1017.84 1018.06 1018.74 1019.43 1020.10 1020.49 1021.40 1021.96 1022.34 1022.50 1022.97 1023.60 1024.18 1024.22 1024.42 1024.60 1024.94 1025.25 1025.55 1025.63 1025.91 1026.05 1026.57 1027.05 1027.19 1027.32 1027.62 1027.90 1027.97 1028.18 1028.44
1013.01 1013.39 1013.41 1013.48 1013.67 1014.22 1014.68 1015.48 1015.66 1016.26 1016.91 1017.83 1017.99 1018.55 1018.82 1019.41 1020.44 1020.84 1021.34 1021.97 1022.45 1022.64 1022.92 1023.50 1024.13 1024.20 1024.77 1025.10 1025.17 1025.51 1025.69 1025.88 1026.03 1026.19 1026.61 1026.99 1027.45 1027.55 1027.96 1027.99 1028.14 1028.42 1028.56
1013.09 1013.28 1013.76 1013.88 1014.11 1014.25 1014.53 1015.44 1015.85 1016.51 1017.42 1017.86 1017.99 1018.69 1019.02 1019.64 1020.40 1020.98 1021.58 1021.95 1022.30 1022.69 1023.04 1023.36 1023.97 1024.19 1024.65 1025.11 1025.42 1025.59 1025.89 1026.17 1026.34 1026.48 1026.53 1026.98 1027.26 1027.40 1027.52 1027.93 1028.14 1028.37 1028.72
1013.31 1013.48 1013.88 1014.15 1014.46 1014.77 1014.87 1015.59 1016.41 1017.00 1017.60 1018.01 1018.27 1018.82 1019.27 1019.82 1020.63 1021.19 1021.74 1022.03 1022.49 1022.69 1023.16 1023.52 1023.77 1024.08 1024.58 1024.95 1025.42 1025.55 1025.76 1026.21 1026.50 1026.69 1026.65 1026.94 1027.32 1027.39 1027.54 1027.73 1028.02 1028.31 1028.65
1013.46 1013.59 1013.89 1014.38 1014.90 1015.37 1015.58 1016.29 1016.92 1017.46 1017.94 1018.19 1018.73 1019.00 1019.61 1020.07 1020.91 1021.24 1021.92 1022.15 1022.42 1022.99 1023.39 1023.74 1024.11 1024.17 1024.62 1025.05 1025.37 1025.64 1025.90 1026.27 1026.40 1026.67 1026.84 1026.78 1027.10 1027.42 1027.55 1027.49 1027.89 1028.24 1028.42
1013.55 1013.74 1014.22 1014.69 1015.25 1015.65 1016.20 1016.60 1017.19 1017.78 1018.33 1018.71 1019.21 1019.55 1020.17 1019.99 1020.99 1021.58 1021.96 1022.12 1022.50 1023.10 1023.54 1023.70 1024.06 1024.09 1024.58 1025.02 1025.44 1025.62 1025.73 1026.17 1026.48 1026.55 1026.60 1026.63 1026.63 1026.75 1027.21 1027.61 1027.73 1027.98 1028.27
1013.75 1013.77 1014.26 1014.72 1015.20 1015.59 1016.05 1016.88 1017.39 1018.00 1018.65 1019.36 1019.59 1019.86 1020.27 1020.37 1020.96 1021.30 1021.72 1022.13 1022.67 1023.09 1023.56 1023.54 1024.24 1024.03 1024.50 1024.93 1025.27 1025.55 1025.84 1026.11 1026.28 1026.65 1026.65 1026.55 1026.50 1026.62 1026.66 1027.25 1027.61 1027.81 1028.03
1013.73 1013.97 1014.29 1014.63 1015.24 1015.85 1016.32 1016.89 1017.58 1018.09 1018.81 1019.35 1019.30 1019.83 1020.12 1020.31 1020.94 1021.31 1021.70 1022.14 1022.37 1022.81 1023.48 1023.67 1023.98 1024.16 1024.49 1024.89 1025.30 1025.65 1026.08 1026.12 1026.26 1026.39 1026.24 1026.57 1026.79 1026.66 1026.66 1026.91 1027.31 1027.46 1027.81
1013.67 1013.97 1014.27 1014.52 1015.27 1015.58 1016.26 1016.83 1017.66 1017.98 1018.48 1019.12 1019.10 1019.36 1019.70 1020.13 1020.69 1021.19 1021.27 1021.95 1022.31 1022.66 1022.98 1023.38 1023.77 1024.03 1024.42 1024.99 1025.38 1025.59 1025.97 1026.18 1026.40 1026.40 1026.52 1026.44 1026.61 1026.43 1026.54 1026.62 1026.99 1027.03 1027.53
1013.37 1013.67 1014.10 1014.46 1014.91 1015.51 1016.03 1016.57 1017.16 1017.69 1018.28 1018.64 1019.01 1019.01 1019.26 1019.72 1020.22 1020.73 1020.98 1021.47 1022.04 1022.69 1022.89 1023.04 1023.38 1023.67 1024.16 1024.68 1024.70 1025.01 1025.14 1025.59 1025.78 1025.60 1025.92 1025.99 1026.10 1026.13 1026.12 1026.30 1026.56 1026.92 1027.04
1012.99 1013.31 1013.81 1014.27 1014.67 1015.27 1015.98 1016.64 1017.15 1017.76 1018.28 1018.63 1018.62 1018.65 1018.95 1019.40 1019.81 1020.10 1020.68 1021.04 1021.89 1021.97 1022.26 1022.62 1022.68 1022.88 1023.26 1024.03 1024.33 1024.33 1024.60 1024.23 1024.55 1024.80 1025.14 1025.37 1025.76 1025.64 1025.57 1025.73 1026.12 1026.39 1026.57
1012.27 1012.78 1013.27 1013.97 1014.45 1014.90 1015.53 1016.16 1016.44 1016.34 1016.70 1017.19 1017.49 1018.01 1018.45 1019.14 1019.81 1019.82 1020.16 1020.42 1021.14 1021.53 1021.80 1021.94 1022.13 1022.29 1022.70 1022.90 1023.91 1024.06 1023.96 1023.97 1024.09 1024.33 1024.71 1024.63 1024.86 1024.99 1024.87 1025.35 1025.33 1025.71 1026.12
1012.01 1012.43 1012.89 1013.50 1014.00 1014.47 1014.96 1015.47 1015.98 1016.08 1016.21 1016.48 1017.09 1017.70 1017.81 1018.69 1019.11 1019.40 1019.94 1020.05 1020.35 1020.41 1021.14 1021.40 1021.64 1022.02 1022.36 1022.35 1022.70 1023.17 1023.72 1023.90 1024.29 1024.46 1024.37 1024.42 1024.63 1024.29 1024.00 1024.50 1024.92 1024.85 1025.55
1011.41 1012.10 1012.49 1012.76 1013.19 1013.64 1014.18 1014.76 1015.30 1015.50 1015.77 1016.21 1017.06 1017.47 1018.04 1018.69 1018.89 1019.31 1019.55 1019.77 1019.80 1020.07 1020.40 1020.78 1021.08 1021.54 1021.83 1022.11 1022.29 1022.50 1022.61 1022.94 1023.57 1023.96 1024.17 1024.05 1023.84 1023.59 1024.03 1024.20 1024.38 1024.65 1024.71
Thickness
5696 5698 5699 5703 5706 5699 5706 5687 5697 5697 5704 5699 5708 5692 5694 5694 5694 5692 5692 5693 5692 5692 5690 5686 5686 5682 5682 5682 5682 5682 5681 5681 5681 5678 5677 5676 5675 5673 5671 5667 5665 5667 5666
5689 5690 5690 5691 5693 5695 5690 5684 5689 5692 5690 5693 5701 5692 5689 5686 5692 5686 5688 5688 5688 5684 5682 5680 5681 5678 5674 5675 5673 5676 5674 5675 5674 5671 5671 5669 5667 5664 5664 5664 5661 5661 5660
5679 5681 5682 5684 5686 5685 5686 5681 5683 5687 5680 5688 5690 5691 5682 5682 5682 5681 5682 5682 5682 5675 5676 5675 5673 5672 5668 5668 5668 5669 5669 5667 5666 5665 5665 5665 5660 5657 5658 5658 5658 5655 5653
5674 5672 5674 5678 5681 5680 5679 5679 5679 5676 5677 5681 5685 5684 5675 5676 5675 5675 5675 5675 5671 5670 5671 5669 5668 5664 5663 5661 5661 5664 5661 5659 5658 5660 5660 5658 5655 5651 5651 5652 5648 5647 5646
5667 5667 5670 5672 5676 5676 5675 5675 5674 5673 5674 5671 5677 5678 5669 5671 5669 5669 5670 5666 5665 5664 5665 5665 5659 5659 5657 5654 5654 5655 5653 5652 5652 5651 5650 5649 5646 5642 5644 5643 5641 5637 5638
5661 5660 5661 5663 5668 5671 5670 5670 5668 5667 5668 5668 5668 5672 5665 5665 5663 5664 5663 5659 5662 5658 5658 5656 5653 5651 5649 5647 5645 5647 5647 5647 5645 5646 5645 5637 5639 5633 5634 5634 5631 5629 5629
5654 5653 5656 5657 5661 5665 5666 5665 5662 5664 5662 5662 5657 5662 5661 5656 5659 5655 5657 5653 5654 5653 5649 5648 5644 5642 5645 5640 5641 5637 5639 5637 5640 5639 5638 5635 5632 5629 5626 5628 5625 5624 5622
5646 5649 5649 5649 5650 5657 5659 5657 5657 5655 5657 5651 5652 5655 5656 5651 5652 5651 5649 5646 5646 5647 5643 5641 5638 5638 5637 5636 5636 5632 5634 5635 5635 5631 5631 5626 5623 5626 5622 5621 5621 5620 5618
5637 5638 5636 5640 5643 5646 5651 5650 5650 5648 5644 5643 5649 5653 5648 5645 5645 5644 5641 5639 5640 5638 5636 5634 5633 5631 5631 5631 5628 5628 5628 5630 5630 5628 5628 5623 5620 5620 5619 5616 5615 5615 5612
5635 5636 5626 5632 5634 5632 5637 5639 5641 5641 5636 5635 5639 5644 5639 5641 5639 5639 5633 5634 5635 5632 5629 5630 5627 5625 5625 5624 5623 5621 5623 5624 5624 5624 5621 5618 5614 5612 5611 5610 5610 5609 5608
5632 5634 5629 5625 5624 5626 5629 5630 5632 5633 5630 5626 5632 5635 5633 5635 5633 5633 5626 5628 5629 5626 5624 5623 5622 5618 5616 5617 5616 5615 5613 5614 5614 5616 5616 5612 5611 5608 5606 5605 5604 5603 5603
5625 5627 5629 5624 5624 5627 5626 5623 5625 5627 5624 5623 5627 5629 5628 5629 5627 5627 5622 5621 5622 5622 5618 5615 5617 5613 5609 5610 5609 5607 5608 5606 5608 5609 5607 5606 5606 5605 5601 5600 5601 5600 5597
5624 5622 5626 5627 5628 5623 5621 5618 5619 5620 5618 5617 5617 5620 5621 5622 5620 5620 5616 5614 5613 5615 5611 5608 5607 5606 5608 5608 5606 5604 5603 5604 5604 5604 5602 5598 5597 5598 5596 5594 5595 5593 5592
5623 5620 5618 5620 5620 5616 5615 5611 5614 5613 5611 5608 5613 5614 5618 5618 5613 5613 5613 5610 5609 5609 5608 5605 5602 5604 5601 5598 5600 5598 5598 5597 5599 5600 5597 5596 5592 5593 5589 5590 5590 5588 5587
5622 5620 5615 5614 5612 5611 5609 5605 5608 5609 5606 5606 5609 5609 5611 5611 5608 5607 5607 5606 5607 5606 5604 5601 5597 5598 5597 5594 5593 5592 5592 5593 5594 5594 5595 5594 5591 5590 5589 5587 5586 5584 5582
5620 5618 5613 5610 5608 5604 5603 5600 5599 5601 5602 5601 5603 5604 5606 5605 5603 5601 5600 5602 5601 5600 5598 5596 5595 5593 5590 5589 5588 5590 5592 5590 5591 5590 5591 5589 5586 5586 5585 5584 5582 5581 5578
5617 5617 5613 5607 5601 5599 5597 5592 5592 5594 5593 5596 5599 5601 5597 5599 5597 5596 5593 5595 5596 5593 5591 5590 5589 5589 5586 5584 5584 5585 5587 5587 5588 5587 5585 5586 5584 5581 5581 5582 5578 5575 5573
5612 5611 5608 5604 5599 5598 5594 5592 5590 5591 5591 5593 5594 5592 5590 5596 5591 5589 5589 5590 5589 5586 5585 5585 5583 5585 5582 5579 5579 5581 5584 5584 5582 5582 5583 5583 5583 5581 5580 5576 5574 5571 5568
5607 5606 5605 5601 5599 5598 5596 5591 5589 5587 5586 5585 5586 5586 5587 5589 5588 5588 5586 5585 5583 5580 5579 5581 5576 5579 5577 5576 5576 5579 5580 5579 5579 5577 5578 5579 5580 5580 5579 5573 5568 5566 5563
5608 5604 5604 5601 5598 5596 5593 5591 5587 5585 5583 5582 5586 5584 5586 5586 5584 5584 5583 5581 5582 5578 5574 5573 5573 5573 5571 5570 5571 5573 5572 5573 5574 5574 5577 5575 5572 5574 5573 5567 5562 5561 5557
5612 5606 5602 5601 5597 5597 5593 5591 5587 5587 5585 5582 5585 5586 5587 5584 5582 5581 5583 5579 5577 5575 5573 5571 5570 5569 5568 5566 5567 5569 5567 5569 5569 5568 5568 5569 5568 5569 5565 5563 5557 5555 5549
5616 5613 5607 5605 5600 5596 5593 5592 5591 5589 5585 5584 5584 5588 5587 5585 5583 5582 5580 5578 5574 5570 5569 5570 5570 5570 5568 5566 5569 5568 5570 5571 5568 5571 5568 5567 5564 5564 5562 5559 5554 5550 5544
5619 5616 5611 5606 5602 5596 5593 5589 5588 5585 5582 5582 5586 5589 5587 5584 5582 5581 5578 5577 5571 5571 5572 5570 5573 5575 5573 5569 5569 5571 5568 5574 5574 5572 5569 5566 5562 5560 5558 5555 5550 5546 5541
5624 5621 5617 5610 5604 5601 5597 5593 5594 5595 5592 5591 5591 5588 5587 5582 5576 5579 5578 5579 5576 5572 5573 5574 5575 5577 5575 5577 5570 5569 5570 5572 5572 5569 5565 5565 5562 5558 5557 5551 5549 5543 5537
5625 5622 5619 5614 5610 5605 5602 5600 5596 5597 5597 5597 5593 5589 5591 5584 5582 5581 5578 5581 5580 5581 5575 5577 5578 5575 5572 5575 5573 5569 5565 5566 5562 5560 5564 5562 5556 5557 5556 5550 5545 5540 5532
5630 5624 5622 5620 5617 5615 5610 5605 5601 5598 5598 5597 5591 5589 5586 5582 5583 5581 5581 5579 5579 5580 5580 5578 5577 5573 5572 5571 5571 5570 5570 5564 5559 5556 5553 5559 5556 5556 5548 5544 5539 5532 5529